Location: Newark
(52.2090°N, 4.1550°W)
Time: 20:58:31
(UTC+00:00)

Transit 2A - Pass Details

Date: 22 October 2019
Orbit: 601 x 957 km, 66.7° (Epoch: 16 November)

Event Time Altitude Azimuth Distance (km) Brightness Sun altitude
Rises 20:55:15 0° 249° (WSW) 3,242 9.7 -34.6°
Reaches altitude 10° 20:57:58 10° 259° (W) 2,255 8.9 -34.9°
Enters shadow 21:00:57 27° 288° (WNW) 1,364 7.8 -35.3°
